Date,TemperatureHighF,TemperatureAvgF,TemperatureLowF,DewpointHighF,DewpointAvgF,DewpointLowF,HumidityHigh,HumidityAvg,HumidityLow,PressureMaxIn,PressureMinIn,WindSpeedMaxMPH,WindSpeedAvgMPH,GustSpeedMaxMPH,PrecipitationSumIn
2013-1-1,34,32,31,-100,-100,-100,0,0,100,30.50,30.37,6,-74,9,0.00
2013-1-2,44,25,28,-100,-100,-100,0,0,100,30.37,30.22,14,-11,19,0.00
2013-1-3,42,27,29,-100,-100,-100,0,0,100,30.22,30.14,23,8,30,0.00
2013-1-4,43,39,37,-100,-100,-100,0,0,100,30.36,30.19,23,-16,31,0.00
2013-1-5,41,38,36,-100,-100,-100,0,0,100,30.23,30.16,9,-16,13,0.00
2013-1-6,44,40,36,-100,-100,-100,0,0,100,30.25,30.03,17,7,24,0.00
2013-1-7,51,46,44,-100,-100,-100,0,0,100,30.22,29.95,19,-5,25,0.00
2013-1-8,52,48,43,-100,-100,-100,0,0,100,30.21,29.86,19,-17,27,0.00
2013-1-9,52,42,35,-100,-100,-100,0,0,100,30.00,29.67,21,-329,30,0.00
2013-1-10,40,36,33,-100,-100,-100,0,0,100,30.12,29.99,6,-216,8,0.00
2013-1-11,40,25,30,-100,-100,-100,0,0,100,30.33,30.12,6,-40,9,0.00
2013-1-12,37,17,28,-100,-100,-100,0,0,100,30.44,30.32,6,-27,9,0.00
2013-1-13,35,15,25,-100,-100,-100,0,0,100,30.50,30.43,8,-18,10,0.00
2013-1-14,34,22,28,-100,-100,-100,0,0,100,30.58,30.51,10,-4,15,0.00
2013-1-15,37,35,33,-100,-100,-100,0,0,100,30.70,30.58,7,-46,11,0.00
2013-1-16,35,29,32,-100,-100,-100,0,0,100,30.68,30.52,7,-68,10,0.00
2013-1-17,36,22,30,-100,-100,-100,0,0,100,30.53,30.33,7,-17,11,0.00
2013-1-18,44,28,29,-100,-100,-100,0,0,100,30.33,30.26,5,-97,6,0.00
2013-1-19,43,24,30,-100,-100,-100,0,0,100,30.37,30.30,4,-46,6,0.00
2013-1-20,39,14,29,-100,-100,-100,0,0,100,30.39,30.27,8,2,9,0.00
2013-1-21,42,24,28,-100,-100,-100,0,0,100,30.30,30.15,10,-2,15,0.00
2013-1-22,39,26,30,-100,-100,-100,0,0,100,30.17,29.95,11,-10,15,0.00
2013-1-23,37,36,34,-100,-100,-100,0,0,100,30.21,29.91,12,6,21,0.00
2013-1-24,43,39,35,-100,-100,-100,0,0,100,30.24,30.10,15,-15,23,0.00
2013-1-25,48,44,41,-100,-100,-100,0,0,100,30.12,29.96,11,-108,15,0.00
2013-1-26,44,42,40,-100,-100,-100,0,0,100,30.09,29.93,15,0,21,0.00
2013-1-27,41,40,38,-100,-100,-100,0,0,100,30.14,30.05,10,-94,14,0.00
2013-1-28,44,42,39,-100,-100,-100,0,0,100,30.19,30.08,14,-51,20,0.00
2013-1-29,47,45,44,-100,-100,-100,0,0,100,30.46,30.19,12,-22,16,0.00
2013-1-30,49,46,44,-100,-100,-100,0,0,100,30.45,30.41,13,-18,21,0.00
2013-1-31,48,45,41,-100,-100,-100,0,0,100,30.43,30.34,8,-228,12,0.00
2013-2-1,52,46,43,-100,-100,-100,0,0,100,30.40,30.31,9,-81,12,0.00
2013-2-2,52,44,39,-100,-100,-100,0,0,100,30.35,30.25,6,-179,8,0.00
2013-2-3,45,42,39,-100,-100,-100,0,0,100,30.35,30.24,9,-31,12,0.00
2013-2-4,52,46,43,-100,-100,-100,0,0,100,30.25,29.94,8,-46,14,0.00
2013-2-5,52,46,44,-100,-100,-100,0,0,100,30.03,29.90,17,-131,27,0.00
2013-2-6,49,46,43,-100,-100,-100,0,0,100,30.09,29.81,16,-244,21,0.00
2013-2-7,48,42,36,-100,-100,-100,0,0,100,30.19,29.87,11,-732,15,0.00
2013-2-8,47,39,33,-100,-100,-100,0,0,100,30.31,30.19,5,-916,7,0.00
2013-2-9,46,41,36,-100,-100,-100,0,0,100,30.32,30.26,6,-519,8,0.00
2013-2-10,46,41,35,-100,-100,-100,0,0,100,30.38,30.31,6,-60,10,0.00
2013-2-11,46,43,41,-100,-100,-100,0,0,100,30.39,30.33,10,-94,13,0.00
2013-2-12,49,46,43,-100,-100,-100,0,0,100,30.47,30.39,8,-298,11,0.00
2013-2-13,50,46,40,-100,-100,-100,0,0,100,30.53,30.41,0,-999,0,0.00
2013-2-14,46,42,38,-100,-100,-100,0,0,100,30.58,30.52,0,-999,0,0.00
2013-2-15,60,48,43,-100,-100,-100,0,0,100,30.54,30.21,0,-999,0,0.00
2013-2-16,50,44,41,-100,-100,-100,0,0,100,30.29,30.21,0,-999,0,0.00
2013-2-17,46,41,37,-100,-100,-100,0,0,100,30.30,30.13,0,-999,0,0.00
2013-2-18,45,41,37,-100,-100,-100,0,0,100,30.12,29.75,0,-999,0,0.00
2013-2-19,51,44,38,-100,-100,-100,0,0,100,30.02,29.72,0,-999,0,0.00
2013-2-20,44,40,35,-100,-100,-100,0,0,100,30.09,30.00,0,-999,0,0.00
2013-2-21,45,43,40,-100,-100,-100,0,0,100,30.16,30.06,0,-999,0,0.00
2013-2-22,48,43,38,-100,-100,-100,0,0,100,30.15,29.85,0,-999,0,0.00
2013-2-23,47,42,38,-100,-100,-100,0,0,100,30.44,30.04,0,-999,0,0.00
2013-2-24,48,43,39,-100,-100,-100,0,0,100,30.44,30.01,0,-999,0,0.00
2013-2-25,47,42,39,-100,-100,-100,0,0,100,30.37,29.99,0,-999,0,0.00
2013-2-26,46,42,37,-100,-100,-100,0,0,100,30.40,30.24,19,-300,24,0.00
2013-2-27,49,47,44,-100,-100,-100,0,0,100,30.31,30.24,17,-6,26,0.00
2013-2-28,54,50,46,-100,-100,-100,0,0,100,30.40,30.18,15,-28,20,0.00
2013-3-1,57,54,50,-100,-100,-100,0,0,100,30.44,30.32,18,0,23,0.00
2013-3-2,54,47,42,-100,-100,-100,0,0,100,30.33,30.15,15,-87,20,0.00
2013-3-3,49,42,36,-100,-100,-100,0,0,100,30.32,30.28,11,-80,17,0.00
2013-3-4,57,42,33,-100,-100,-100,0,0,100,30.29,29.92,13,-59,17,0.00
2013-3-5,46,41,35,-100,-100,-100,0,0,100,29.93,29.69,15,-37,21,0.00
2013-3-6,45,43,41,-100,-100,-100,0,0,100,29.95,29.57,14,-172,17,0.00
2013-3-7,55,46,40,-100,-100,-100,0,0,100,30.07,29.94,15,-63,19,0.00
2013-3-8,56,44,37,-100,-100,-100,0,0,100,30.24,30.07,8,-25,13,0.00
2013-3-9,55,43,34,-100,-100,-100,0,0,100,30.52,30.24,9,-46,10,0.00
2013-3-10,47,42,36,-100,-100,-100,0,0,100,30.52,30.43,6,-158,9,0.00
2013-3-11,52,48,44,-100,-100,-100,0,0,100,30.45,30.24,11,-67,13,0.00
2013-3-12,58,53,49,-100,-100,-100,0,0,100,30.24,30.15,13,-16,17,0.00
2013-3-13,59,53,49,-100,-100,-100,0,0,100,30.23,30.10,12,-9,16,0.00
2013-3-14,55,50,47,-100,-100,-100,0,0,100,30.20,30.06,12,-38,17,0.00
2013-3-15,59,52,47,-100,-100,-100,0,0,100,30.23,30.19,12,-2,13,0.00
2013-3-16,50,46,40,-100,-100,-100,0,0,100,30.19,30.02,18,-43,28,0.00
2013-3-17,46,41,38,-100,-100,-100,0,0,100,30.30,30.12,13,-613,17,0.00
2013-3-18,52,43,39,-100,-100,-100,0,0,100,30.28,30.21,3,-964,6,0.00
2013-3-19,50,42,37,-100,-100,-100,0,0,100,30.21,29.65,0,-999,0,0.00
2013-3-20,52,47,39,-100,-100,-100,0,0,100,30.15,29.48,19,-748,29,0.00
2013-3-21,44,39,36,-100,-100,-100,0,0,100,30.31,30.14,14,-957,19,0.00
2013-3-22,45,39,36,-100,-100,-100,0,0,100,30.41,30.30,0,-999,0,0.00
2013-3-23,49,40,34,-100,-100,-100,0,0,100,30.42,30.30,0,-999,0,0.00
2013-3-24,55,44,35,-100,-100,-100,0,0,100,30.31,30.11,0,-999,0,0.00
2013-3-25,62,48,38,-100,-100,-100,0,0,100,30.12,29.91,0,-999,0,0.00
2013-3-26,55,49,45,-100,-100,-100,0,0,100,30.03,29.98,9,-591,12,0.00
2013-3-27,62,52,46,-100,-100,-100,0,0,100,30.01,29.91,11,-101,12,0.00
2013-3-28,61,53,48,-100,-100,-100,0,0,100,30.15,30.01,10,-80,12,0.00
2013-3-29,66,55,48,-100,-100,-100,0,0,100,30.23,30.14,8,-45,9,0.00
2013-3-30,73,59,47,-100,-100,-100,0,0,100,30.23,30.02,11,-18,16,0.00
2013-3-31,76,58,48,-100,-100,-100,0,0,100,30.03,29.89,12,-39,15,0.00
2013-4-1,64,53,49,-100,-100,-100,0,0,100,30.19,30.02,12,-72,15,0.00
2013-4-2,56,52,49,-100,-100,-100,0,0,100,30.22,30.17,9,-10,11,0.00
2013-4-3,64,54,49,-100,-100,-100,0,0,100,30.20,29.93,6,-53,7,0.00
2013-4-4,59,55,51,-100,-100,-100,0,0,100,29.93,29.67,16,-107,21,0.00
2013-4-5,58,54,51,-100,-100,-100,0,0,100,29.92,29.78,18,9,28,0.00
2013-4-6,56,51,45,-100,-100,-100,0,0,100,29.98,29.72,18,9,24,0.00
2013-4-7,51,47,44,-100,-100,-100,0,0,100,29.95,29.49,21,9,30,0.00
2013-4-8,53,47,44,-100,-100,-100,0,0,100,30.31,29.96,13,5,16,0.00
2013-4-9,54,48,40,-100,-100,-100,0,0,100,30.37,30.24,10,-38,13,0.00
2013-4-10,54,52,48,-100,-100,-100,0,0,100,30.35,30.07,18,10,27,0.00
2013-4-11,55,48,44,-100,-100,-100,0,0,100,30.37,30.22,13,-1,17,0.00
2013-4-12,50,44,36,-100,-100,-100,0,0,100,30.22,29.82,12,-11,18,0.00
2013-4-13,47,43,39,-100,-100,-100,0,0,100,30.08,29.91,19,-8,25,0.00
2013-4-14,51,44,41,-100,-100,-100,0,0,100,30.08,29.96,9,4,13,0.00
2013-4-15,55,45,37,-100,-100,-100,0,0,100,30.22,29.97,15,4,22,0.00
2013-4-16,59,47,38,-100,-100,-100,0,0,100,30.42,30.19,14,-9,20,0.00
2013-4-17,58,47,38,-100,-100,-100,0,0,100,30.50,30.42,14,6,18,0.00
2013-4-18,54,49,45,-100,-100,-100,0,0,100,30.50,30.31,10,-2,14,0.00
2013-4-19,54,51,49,-100,-100,-100,0,0,100,30.31,30.13,15,-15,21,0.00
2013-4-20,56,50,46,-100,-100,-100,0,0,100,30.35,30.29,12,-1,17,0.00
2013-4-21,55,49,46,-100,-100,-100,0,0,100,30.35,30.26,14,-30,18,0.00
2013-4-22,64,52,41,-100,-100,-100,0,0,100,30.48,30.35,11,-10,16,0.00
2013-4-23,66,53,38,-100,-100,-100,0,0,100,30.42,30.19,14,-17,21,0.00
2013-4-24,73,58,44,-100,-100,-100,0,0,100,30.31,30.05,12,-31,16,0.00
2013-4-25,70,56,44,-100,-100,-100,0,0,100,30.20,30.05,12,-30,15,0.00
2013-4-26,75,57,47,-100,-100,-100,0,0,100,30.28,30.19,8,-3,11,0.00
2013-4-27,60,52,45,-100,-100,-100,0,0,100,30.29,30.24,11,-52,15,0.00
2013-4-28,59,54,50,-100,-100,-100,0,0,100,30.27,30.07,13,-29,16,0.00
2013-4-29,53,49,44,-100,-100,-100,0,0,100,30.24,30.06,19,8,26,0.00
2013-4-30,56,47,41,-100,-100,-100,0,0,100,30.48,30.24,16,6,21,0.00
2013-5-1,68,51,35,-100,-100,-100,0,0,100,30.56,30.48,9,-17,13,0.00
2013-5-2,78,60,47,-100,-100,-100,0,0,100,30.51,30.29,14,-3,19,0.00
2013-5-3,76,64,50,-100,-100,-100,0,0,100,30.35,30.18,14,-8,23,0.00
2013-5-4,82,68,55,-100,-100,-100,0,0,100,30.18,29.93,16,-2,24,0.00
2013-5-5,86,69,54,-100,-100,-100,0,0,100,29.96,29.71,7,-39,12,0.00
2013-5-6,75,61,52,-100,-100,-100,0,0,100,29.90,29.79,11,-2,14,0.00
2013-5-7,66,57,53,-100,-100,-100,0,0,100,30.06,29.90,13,6,15,0.00
2013-5-8,67,57,53,-100,-100,-100,0,0,100,30.18,30.05,10,-2,13,0.00
2013-5-9,74,59,51,-100,-100,-100,0,0,100,30.22,30.10,9,5,12,0.00
2013-5-10,74,59,50,-100,-100,-100,0,0,100,30.22,30.12,10,5,13,0.00
2013-5-11,77,62,53,-100,-100,-100,0,0,100,30.24,30.03,11,-2,14,0.00
2013-5-12,69,62,58,-100,-100,-100,0,0,100,30.12,30.06,10,-53,13,0.00
2013-5-13,65,58,49,-100,-100,-100,0,0,100,30.24,30.01,23,-32,30,0.00
2013-5-14,65,54,45,-100,-100,-100,0,0,100,30.25,30.12,10,4,13,0.00
2013-5-15,57,53,48,-100,-100,-100,0,0,100,30.15,30.03,11,-3,15,0.00
2013-5-16,65,54,53,-100,-100,-100,0,0,100,30.03,29.91,16,-10,19,0.00
2013-5-17,60,54,49,-100,-100,-100,0,0,100,30.11,29.99,12,-37,16,0.00
2013-5-18,58,54,51,-100,-100,-100,0,0,100,30.29,30.11,11,-17,15,0.00
2013-5-19,62,56,51,-100,-100,-100,0,0,100,30.42,30.29,12,7,16,0.00
2013-5-20,68,56,49,-100,-100,-100,0,0,100,30.39,29.95,11,5,15,0.00
2013-5-21,53,49,46,-100,-100,-100,0,0,100,29.96,29.85,15,-29,25,0.00
2013-5-22,49,46,44,-100,-100,-100,0,0,100,29.97,29.92,14,8,18,0.00
2013-5-23,52,49,46,-100,-100,-100,0,0,100,30.01,29.95,14,8,20,0.00
2013-5-24,55,52,49,-100,-100,-100,0,0,100,30.10,29.97,14,6,21,0.00
2013-5-25,62,53,47,-100,-100,-100,0,0,100,30.09,29.96,12,5,16,0.00
2013-5-26,62,56,52,-100,-100,-100,0,0,100,30.02,29.96,13,-58,16,0.00
2013-5-27,62,56,53,-100,-100,-100,0,0,100,29.99,29.72,19,-25,27,0.00
2013-5-28,61,56,53,-100,-100,-100,0,0,100,29.93,29.78,14,-1,20,0.00
2013-5-29,58,54,51,-100,-100,-100,0,0,100,30.06,29.65,17,-23,21,0.00
2013-5-30,58,54,50,-100,-100,-100,0,0,100,30.27,30.06,13,-2,16,0.00
2013-5-31,65,57,49,-100,-100,-100,0,0,100,30.35,30.25,9,-3,11,0.00
2013-6-1,71,59,51,-100,-100,-100,0,0,100,30.27,30.05,11,-23,14,0.00
2013-6-2,66,59,54,-100,-100,-100,0,0,100,30.13,30.06,13,7,17,0.00
2013-6-3,70,58,51,-100,-100,-100,0,0,100,30.15,30.06,13,-1,16,0.00
2013-6-4,83,63,49,-100,-100,-100,0,0,100,30.13,30.00,10,5,16,0.00
2013-6-5,75,64,56,-100,-100,-100,0,0,100,30.11,30.02,13,7,16,0.00
2013-6-6,76,62,54,-100,-100,-100,0,0,100,30.09,30.01,14,7,18,0.00
2013-6-7,69,59,53,-100,-100,-100,0,0,100,30.20,30.09,13,6,17,0.00
2013-6-8,71,60,51,-100,-100,-100,0,0,100,30.21,30.10,12,7,17,0.00
2013-6-9,67,58,51,-100,-100,-100,0,0,100,30.14,30.04,17,8,22,0.00
2013-6-10,65,55,45,-100,-100,-100,0,0,100,30.07,29.94,15,0,22,0.00
2013-6-11,61,55,51,-100,-100,-100,0,0,100,30.16,30.01,12,-10,17,0.00
2013-6-12,58,55,52,-100,-100,-100,0,0,100,30.19,30.14,10,-18,13,0.00
2013-6-13,63,57,52,-100,-100,-100,0,0,100,30.29,30.17,10,-3,19,0.00
2013-6-14,66,59,54,-100,-100,-100,0,0,100,30.29,30.03,8,-32,11,0.00
2013-6-15,76,62,52,-100,-100,-100,0,0,100,30.04,29.91,13,4,16,0.00
2013-6-16,67,60,56,-100,-100,-100,0,0,100,30.12,30.04,9,5,12,0.00
2013-6-17,73,62,58,-100,-100,-100,0,0,100,30.12,29.95,18,-2,23,0.00
2013-6-18,65,58,53,-100,-100,-100,0,0,100,30.01,29.95,14,5,20,0.00
2013-6-19,64,58,53,-100,-100,-100,0,0,100,30.09,29.96,11,-32,15,0.00
2013-6-20,63,58,55,-100,-100,-100,0,0,100,30.09,30.04,8,4,13,0.00
2013-6-22,76,69,53,-100,-100,-100,0,0,100,30.09,29.87,11,-35,15,0.00
2013-6-23,67,63,60,-100,-100,-100,0,0,100,29.87,29.64,11,-23,14,0.00
2013-6-24,64,61,58,-100,-100,-100,0,0,100,29.72,29.61,14,-26,19,0.00
2013-6-25,66,62,59,-100,-100,-100,0,0,100,29.86,29.68,20,7,26,0.00
2013-6-26,70,64,60,-100,-100,-100,0,0,100,30.06,29.85,16,9,22,0.00
2013-6-27,73,65,61,-100,-100,-100,0,0,100,30.19,30.02,11,-80,16,0.00
2013-6-28,83,70,63,-100,-100,-100,0,0,100,30.17,30.05,15,-3,20,0.00
2013-6-29,85,71,63,-100,-100,-100,0,0,100,30.12,29.98,10,-4,13,0.00
2013-6-30,88,74,62,-100,-100,-100,0,0,100,30.01,29.85,11,5,15,0.00
2013-7-1,81,70,63,-100,-100,-100,0,0,100,30.06,29.94,13,7,17,0.00
2013-7-2,78,67,60,-100,-100,-100,0,0,100,30.12,30.05,13,8,17,0.00
2013-7-3,74,65,58,-100,-100,-100,0,0,100,30.17,30.07,16,9,20,0.00
2013-7-4,68,62,55,-100,-100,-100,0,0,100,30.15,30.08,17,8,23,0.00
2013-7-5,71,62,55,-100,-100,-100,0,0,100,30.08,29.98,12,-3,15,0.00
2013-7-6,74,61,56,-100,-100,-100,0,0,100,30.01,29.87,14,6,17,0.00
2013-7-7,70,62,58,-100,-100,-100,0,0,100,30.01,29.92,13,8,18,0.00
2013-7-8,75,62,58,-100,-100,-100,0,0,100,30.11,30.00,9,6,13,0.00
2013-7-9,81,67,58,-100,-100,-100,0,0,100,30.11,30.01,12,7,16,0.00
2013-7-10,71,60,56,-100,-100,-100,0,0,100,30.11,29.99,16,9,20,0.00
2013-7-11,69,60,51,-100,-100,-100,0,0,100,30.10,30.00,16,-3,21,0.00
2013-7-12,68,59,51,-100,-100,-100,0,0,100,30.13,30.03,15,6,20,0.00
2013-7-13,79,64,49,-100,-100,-100,0,0,100,30.20,30.08,14,6,17,0.00
2013-7-14,79,66,55,-100,-100,-100,0,0,100,30.13,29.99,13,7,18,0.00
2013-7-15,83,67,54,-100,-100,-100,0,0,100,30.05,29.85,14,6,21,0.00
2013-7-16,84,71,63,-100,-100,-100,0,0,100,29.98,29.79,12,4,17,0.00
2013-7-17,70,64,59,-100,-100,-100,0,0,100,30.20,29.97,10,6,13,0.00
2013-7-18,75,63,58,-100,-100,-100,0,0,100,30.24,30.11,12,6,16,0.00
2013-7-19,74,62,56,-100,-100,-100,0,0,100,30.18,30.04,15,8,18,0.00
2013-7-20,73,62,56,-100,-100,-100,0,0,100,30.11,29.98,13,8,17,0.00
2013-7-21,73,63,56,-100,-100,-100,0,0,100,30.01,29.93,13,8,17,0.00
2013-7-22,74,64,57,-100,-100,-100,0,0,100,30.07,29.98,11,7,15,0.00
2013-7-23,83,67,58,-100,-100,-100,0,0,100,30.07,29.95,11,7,15,0.00
2013-7-24,79,64,56,-100,-100,-100,0,0,100,30.09,29.99,13,7,15,0.00
2013-7-25,81,65,56,-100,-100,-100,0,0,100,30.13,30.05,13,8,17,0.00
2013-7-26,77,64,56,-100,-100,-100,0,0,100,30.18,30.09,13,7,18,0.00
2013-7-27,71,62,56,-100,-100,-100,0,0,100,30.20,30.05,14,7,20,0.00
2013-7-28,64,60,56,-100,-100,-100,0,0,100,30.07,30.01,12,6,17,0.00
2013-7-29,72,63,59,-100,-100,-100,0,0,100,30.02,29.96,12,6,16,0.00
2013-7-30,71,63,58,-100,-100,-100,0,0,100,30.17,30.05,9,6,13,0.00
2013-7-31,69,62,58,-100,-100,-100,0,0,100,30.15,30.02,13,6,18,0.00
2013-8-1,65,62,58,-100,-100,-100,0,0,100,30.11,30.07,8,-12,11,0.00
2013-8-2,67,62,58,-100,-100,-100,0,0,100,30.14,30.10,8,-8,10,0.00
2013-8-3,78,68,61,-100,-100,-100,0,0,100,30.13,30.02,12,5,18,0.00
2013-8-4,83,70,60,-100,-100,-100,0,0,100,30.05,29.92,11,5,14,0.00
2013-8-5,78,65,58,-100,-100,-100,0,0,100,30.04,29.93,9,6,13,0.00
2013-8-6,83,67,55,-100,-100,-100,0,0,100,30.04,29.92,9,6,12,0.00
2013-8-7,77,64,57,-100,-100,-100,0,0,100,30.06,29.97,12,7,15,0.00
2013-8-8,74,66,60,-100,-100,-100,0,0,100,30.07,29.94,13,-10,18,0.00
2013-8-9,71,63,58,-100,-100,-100,0,0,100,29.98,29.87,13,6,16,0.00
2013-8-10,71,64,60,-100,-100,-100,0,0,100,30.06,29.93,13,6,19,0.00
2013-8-11,69,63,60,-100,-100,-100,0,0,100,30.09,30.01,8,5,11,0.00
2013-8-31,83,64,61,-100,-100,-100,0,0,100,30.06,29.83,9,5,11,0.00
2013-9-1,71,67,62,-100,-100,-100,0,0,100,29.90,29.84,7,6,10,0.00
2013-9-2,74,68,63,-100,-100,-100,0,0,100,29.94,29.88,8,4,11,0.00
2013-9-3,72,67,62,-100,-100,-100,0,0,100,30.02,29.93,7,5,9,0.00
2013-9-4,71,66,62,-100,-100,-100,0,0,100,30.06,30.01,8,5,10,0.00
2013-9-5,69,66,63,-100,-100,-100,0,0,100,30.01,29.96,8,6,11,0.00
2013-9-6,69,64,61,-100,-100,-100,0,0,100,30.13,30.00,8,4,13,0.00
2013-11-27,51,45,40,-100,-100,-100,0,0,100,30.08,29.97,2,1,3,0.00
2013-11-28,50,41,34,-100,-100,-100,0,0,100,30.14,30.05,3,-165,3,0.00
2013-11-29,44,39,35,-100,-100,-100,0,0,100,30.36,30.22,9,-164,11,0.00
2013-11-30,48,40,43,-100,-100,-100,0,0,100,30.37,30.27,10,4,14,0.00
2013-12-1,55,52,49,-100,-100,-100,0,0,100,30.12,29.93,16,7,21,0.00
2013-12-2,43,40,37,-100,-100,-100,0,0,100,30.07,29.95,12,5,16,0.00
2013-12-3,40,23,33,-100,-100,-100,0,0,100,30.32,30.08,6,2,9,0.00
2013-12-4,35,0,35,-100,-100,-100,0,0,100,30.37,30.31,4,2,6,0.00
2013-12-5,33,0,33,-100,-100,-100,0,0,100,30.34,30.17,7,3,10,0.00
2013-12-6,28,0,28,-100,-100,-100,0,0,100,30.17,30.04,13,7,19,0.00
2013-12-7,-200,0,200,-100,-100,-100,0,0,100,30.46,30.16,5,2,8,0.00
2013-12-8,-200,0,200,-100,-100,-100,0,0,100,30.62,30.46,7,3,9,0.00
2013-12-12,40,11,32,-100,-100,-100,0,0,100,30.21,30.13,11,3,18,0.00
2013-12-13,45,43,42,-100,-100,-100,0,0,100,30.44,30.21,5,-165,8,0.00
2013-12-14,42,30,40,-100,-100,-100,0,0,100,30.44,30.38,6,3,9,0.00
2013-12-15,44,43,41,-100,-100,-100,0,0,100,30.45,30.44,5,-247,7,0.00
2013-12-16,43,42,41,-100,-100,-100,0,0,100,30.49,30.28,7,-248,8,0.00
2013-12-17,41,38,37,-100,-100,-100,0,0,100,30.27,30.19,9,5,12,0.00
2013-12-18,43,40,38,-100,-100,-100,0,0,100,30.19,30.08,9,3,12,0.00
2013-12-30,42,40,38,-100,-100,-100,0,0,100,30.28,30.20,8,4,10,0.00
2013-12-31,45,42,39,-100,-100,-100,0,0,100,30.37,30.25,3,2,5,0.00
2014-1-1,44,42,40,-100,-100,-100,0,0,100,30.39,30.28,4,-271,5,0.00
2014-1-2,44,42,40,-100,-100,-100,0,0,100,30.27,30.03,5,4,8,0.00